User: anonymous   Login
Location: Wildlife_Club
(35.6000°N, 81.4330°W)
Time: 10:00:54
(UTC-04:00)
Language:

Cosmos 1782 - Orbit

View from above orbital plane
View from above orbital plane
View from above satellite
View from above satellite

Ground track
Ground track

The orbit data is extracted from the following two-line orbital elements,

1 16986U 86074A   18173.95034392 -.00000033 +00000-0 -42328-5 0  9992
2 16986 082.5085 120.4674 0012010 149.9958 210.1961 15.06883845705508
Epoch (UTC): 22 June 2018 22:48:29
Eccentricity: 0.0012010
inclination: 82.5085°
perigee height: 537 km
apogee height: 554 km
right ascension of ascending node: 120.4674°
argument of perigee: 149.9958°
revolutions per day: 15.06883845
mean anomaly at epoch: 210.1961°
orbit number at epoch: 70550

The dashed part of the orbit path shows where the satellite is in the earth's shadow,  

DLR